Wind_Speed
2 1 4 5 6 6 6 6 5 4 2 3 3 5 8 10 9 11 11 10 12 14 13 14 14 12 10 8 7 8 9 9 10 11 10 10 11 11 12 12 12 13 12 13 13 13 13 12 12 11 11 11 11 12 12 12 11 10 8 7 6 5 5 5 5 4 4 3 2 2 2 1 2 1 1 1 1 1 1 1 1 1 1 1 1 1
1 3 7 6 6 5 4 3 3 3 3 3 5 7 7 7 6 7 7 7 9 12 13 14 16 13 10 8 5 5 8 9 9 10 10 12 12 11 11 12 13 12 12 13 14 14 15 15 15 15 14 14 13 13 13 11 11 10 9 8 7 5 5 5 6 6 5 4 4 3 3 3 2 2 2 2 2 2 2 1 1 1 2 2 2 2
3 6 7 5 3 2 1 1 2 4 3 2 5 5 5 6 6 7 9 10 10 10 11 14 15 13 11 10 7 6 7 8 8 8 9 10 11 10 10 10 11 11 11 11 13 14 16 16 17 16 15 15 13 12 12 11 10 9 8 8 7 6 5 5 5 6 6 6 5 5 5 4 4 3 2 2 3 3 3 3 3 3 3 3 3 3
4 7 7 3 2 1 2 2 1 3 2 2 3 4 5 8 7 5 7 9 9 9 13 16 14 11 11 11 9 9 8 8 8 8 9 9 11 11 10 9 9 11 11 10 11 12 14 16 18 17 15 14 12 12 12 12 10 8 8 8 7 7 7 6 6 7 8 8 7 7 6 6 6 4 3 3 4 4 4 4 4 4 4 4 4 4
8 7 5 2 1 2 2 2 1 0 4 5 5 5 5 7 7 7 8 10 10 13 15 14 12 8 8 10 10 9 9 10 9 10 11 10 11 11 10 9 9 10 11 10 11 11 14 18 19 17 16 13 11 11 12 12 11 10 9 8 8 9 10 9 9 9 9 8 6 6 7 6 6 6 5 5 4 4 4 5 5 5 5 5 5 5
9 6 2 1 3 2 2 3 3 4 4 6 8 9 6 5 10 11 13 12 7 9 9 4 5 6 6 8 9 8 10 11 10 11 11 11 10 10 9 9 10 11 11 12 12 13 15 17 18 17 16 13 11 11 11 12 12 12 11 10 9 10 11 11 11 11 11 9 7 6 7 7 7 6 6 5 5 5 5 5 5 5 6 6 6 6
6 4 2 4 4 2 3 6 4 5 1 6 7 10 9 11 13 4 6 8 4 5 4 4 3 6 5 7 8 9 10 11 10 11 11 10 9 9 9 8 9 10 10 11 12 14 16 16 16 16 15 14 13 12 12 12 12 12 12 12 11 11 11 11 11 11 11 11 9 8 8 9 10 9 6 4 5 6 7 7 6 7 7 7 7 7
5 5 6 7 6 5 4 6 5 7 2 7 9 12 13 15 10 5 6 6 4 6 6 3 6 8 5 5 6 8 10 10 10 10 10 9 9 9 9 9 10 10 10 10 11 13 15 15 14 14 14 14 14 13 13 12 12 12 12 13 13 13 13 12 12 11 10 11 11 10 10 9 12 12 10 7 7 7 7 7 7 7 7 7 7 8
5 7 8 8 6 7 6 7 6 6 4 9 11 13 13 14 11 9 6 7 6 6 7 6 6 6 6 5 5 6 8 9 8 9 9 8 9 9 9 9 10 10 10 10 10 12 13 13 13 13 13 13 13 13 13 13 12 11 11 13 13 14 14 14 13 13 12 11 11 11 11 11 10 10 11 11 10 10 10 9 8 7 6 6 7 8
5 7 9 8 6 6 7 8 5 4 5 11 12 12 11 9 8 7 4 6 5 4 6 5 2 4 6 5 5 5 5 7 7 6 7 7 7 8 8 9 9 8 8 9 11 12 12 12 12 12 12 12 12 12 12 12 12 12 12 12 13 13 13 13 13 13 12 12 11 11 11 12 12 11 11 11 10 10 12 13 12 8 6 6 6 7
6 4 4 7 7 5 5 7 5 3 9 13 12 10 8 6 5 4 2 4 4 4 5 4 2 2 4 5 4 4 5 5 5 5 5 6 7 7 7 7 8 7 7 8 9 11 12 12 12 12 12 11 11 10 11 11 11 12 12 12 13 13 12 12 12 13 12 12 11 11 11 11 12 13 13 12 11 10 11 13 13 12 11 9 7 6
8 4 4 5 6 4 0 4 7 6 9 10 8 7 6 5 5 4 4 4 3 4 3 3 1 2 2 5 5 6 6 4 4 5 6 5 6 7 6 7 7 7 7 7 8 9 9 10 11 11 10 10 9 10 10 11 11 11 12 12 13 13 13 12 12 12 12 12 11 11 11 11 12 13 13 13 12 12 12 11 11 12 12 12 11 9
6 6 6 4 4 7 3 2 6 4 5 5 4 5 4 4 4 4 4 3 2 5 4 3 2 2 3 4 6 8 7 5 4 4 5 5 6 6 6 6 5 5 6 6 6 7 8 9 9 10 9 9 9 9 10 10 11 11 11 13 13 13 13 13 12 12 12 11 12 11 11 11 12 12 12 12 12 12 12 11 11 12 12 13 13 12
4 7 6 2 3 8 8 1 3 3 5 3 3 3 1 3 3 4 4 3 3 5 5 2 2 2 4 4 6 7 5 5 5 4 5 6 5 5 5 5 5 5 5 6 6 7 8 9 9 9 8 8 8 9 9 10 10 10 10 12 12 12 13 13 13 12 12 12 11 11 11 11 11 11 12 12 12 12 12 12 12 12 12 13 13 13
2 5 7 6 4 8 8 7 6 2 2 1 1 2 2 2 1 1 2 3 5 6 6 3 2 2 4 4 5 5 4 5 4 4 5 4 4 4 3 4 4 5 5 5 6 6 7 8 8 7 7 7 7 8 9 9 9 9 10 11 12 12 12 13 13 12 12 12 12 12 11 11 11 11 11 11 11 12 12 12 12 12 13 13 13 13
2 5 6 5 4 7 7 6 6 4 0 2 1 4 1 3 3 1 3 4 3 4 5 3 1 1 2 3 4 4 5 6 5 5 4 3 4 3 2 3 4 4 5 5 5 5 7 7 7 6 6 7 7 7 8 8 8 8 9 10 10 11 12 12 13 12 12 12 12 13 13 12 12 12 12 11 12 12 12 12 12 12 13 13 14 14
1 5 5 4 5 6 5 5 4 3 2 2 3 0 3 4 3 1 3 4 1 3 5 3 2 3 2 4 6 6 7 7 6 5 4 3 4 2 2 3 3 4 4 4 4 5 6 7 7 6 6 7 7 7 7 7 7 8 9 9 10 10 11 12 12 12 12 12 12 12 13 13 13 13 13 13 13 13 12 12 11 12 12 13 14 15
1 4 6 3 5 6 1 1 4 5 5 2 2 4 3 1 1 1 2 2 4 2 4 3 4 4 4 4 7 9 9 8 7 6 5 4 4 3 3 3 3 4 3 3 3 4 5 7 7 6 6 6 6 6 7 7 7 8 9 9 9 10 10 11 11 11 11 12 11 12 12 13 13 12 12 13 13 14 13 13 12 12 12 13 13 14
2 2 6 2 2 4 2 4 3 6 6 5 5 4 1 1 2 2 1 2 3 2 3 4 3 4 5 4 8 11 11 10 9 7 6 6 4 3 2 2 2 2 2 1 1 3 4 5 5 5 5 5 5 6 7 7 7 8 8 9 9 9 9 10 10 10 11 11 11 11 12 12 12 12 12 12 13 13 13 13 13 13 14 14 14 14
2 1 4 3 1 1 1 1 0 4 5 4 4 2 2 3 1 1 1 1 1 2 3 3 3 3 3 4 8 11 11 11 9 7 6 5 4 2 1 1 1 2 1 1 0 2 3 3 4 3 4 4 5 6 7 7 6 7 7 8 9 8 8 9 10 10 10 10 11 11 12 12 12 12 12 12 12 12 12 12 13 13 14 14 14 14
2 2 2 3 2 2 2 5 4 3 3 1 3 2 2 0 1 1 1 2 3 1 2 3 3 2 3 2 6 9 10 10 9 7 6 5 4 3 1 0 0 1 2 1 1 1 1 2 2 2 2 4 4 5 6 6 6 7 8 9 9 9 9 9 10 10 10 11 11 11 12 12 12 12 12 12 12 12 12 12 12 13 13 14 14 14
2 1 2 2 3 3 5 5 4 4 5 3 1 1 1 0 2 2 2 1 2 2 1 0 2 4 4 1 3 7 8 8 8 7 6 5 5 4 2 2 2 2 2 2 2 1 1 1 1 1 2 3 3 4 5 6 6 7 8 9 9 9 10 10 11 12 12 12 12 12 13 12 12 12 13 13 12 12 12 12 13 13 14 14 14 15
2 1 2 3 4 5 7 5 1 2 2 4 4 3 2 1 2 3 1 3 1 0 1 2 1 4 4 0 2 5 7 8 7 7 6 5 5 4 3 3 3 4 3 3 3 3 2 1 1 1 1 2 2 2 4 5 5 6 7 8 9 10 11 11 12 13 13 13 13 13 13 13 13 13 14 14 13 13 13 13 13 14 14 15 15 15
2 2 1 3 4 5 7 6 4 3 3 1 6 4 3 2 3 5 3 1 1 1 1 2 2 3 4 2 2 3 6 7 6 7 7 5 4 4 4 4 4 4 4 4 4 5 4 3 2 2 1 2 2 2 2 4 5 5 6 8 9 10 12 13 13 14 15 15 14 14 14 14 14 14 15 15 14 14 14 14 14 14 14 15 15 16
1 1 1 2 3 5 5 6 6 4 2 3 5 4 4 3 2 2 1 1 1 2 3 3 2 4 4 4 4 5 6 6 6 7 7 5 5 5 5 4 4 4 5 5 5 5 5 4 3 1 2 3 3 2 3 4 5 6 6 8 9 11 13 14 14 15 16 15 15 15 14 15 15 15 15 15 15 16 16 15 14 14 15 15 16 17
1 1 2 3 1 2 2 3 3 2 2 3 4 4 4 4 3 2 2 2 2 2 2 3 4 4 5 6 7 7 7 7 7 8 7 6 6 6 5 4 4 5 5 5 5 5 5 4 3 1 1 3 3 3 3 5 6 7 8 9 10 11 13 14 15 16 16 15 15 15 15 15 15 15 15 16 16 16 16 15 14 15 16 16 17 18
0 3 4 6 5 5 5 6 4 3 1 3 3 4 4 4 5 4 1 2 3 1 1 4 5 2 4 6 7 8 8 8 8 8 8 7 7 6 6 5 5 5 5 5 5 5 5 5 3 2 2 2 3 3 4 5 6 7 9 10 11 12 13 14 14 16 16 15 14 14 14 15 15 15 15 16 17 16 16 15 15 16 17 17 18 18
1 4 4 6 7 6 6 6 3 3 2 3 2 2 3 4 5 5 4 4 3 3 2 6 3 3 1 2 4 6 7 8 8 9 9 8 7 7 6 6 6 6 6 5 6 6 6 5 4 4 3 2 3 3 5 6 7 8 9 11 12 13 13 13 14 15 15 14 14 14 14 15 15 15 15 16 17 17 16 17 17 17 18 18 18 18
0 4 3 3 5 4 3 3 1 3 2 2 2 2 3 4 4 5 4 3 3 4 4 5 4 5 4 2 1 2 4 6 7 8 8 7 7 7 7 7 8 8 7 7 7 7 6 5 5 5 4 4 4 4 5 6 8 9 10 11 13 13 13 13 13 14 14 14 14 14 15 15 14 15 15 16 17 17 17 18 19 19 19 20 20 19
2 3 2 1 4 4 2 1 1 3 3 3 3 2 3 4 4 3 2 2 3 4 4 4 6 7 5 3 3 2 1 3 5 5 6 8 8 8 8 8 8 8 8 8 7 7 7 7 7 6 6 6 5 5 6 7 8 10 11 12 12 12 12 12 13 14 14 15 14 14 15 14 14 15 15 16 16 17 18 19 20 20 21 21 20 20
1 2 0 3 2 4 2 0 2 4 5 5 4 3 3 4 4 3 3 2 4 5 4 4 7 6 1 2 3 2 1 3 5 5 7 8 8 8 9 9 9 8 8 8 8 7 7 7 8 7 7 7 6 6 7 7 9 11 12 12 12 12 12 12 13 13 14 15 14 14 14 14 15 16 16 16 17 18 19 20 20 21 21 21 21 20
0 2 2 5 2 3 2 2 3 4 6 7 7 5 5 5 4 3 2 2 4 5 4 5 6 3 4 3 2 2 2 4 5 6 7 7 8 9 9 9 9 9 8 8 8 8 7 7 8 8 7 7 7 8 8 8 9 11 12 12 12 11 11 12 13 13 14 14 14 13 14 15 15 16 17 17 18 19 19 20 20 21 21 21 21 20
0 1 2 3 2 3 2 3 4 5 6 4 2 2 3 3 4 4 4 3 4 5 5 5 4 5 5 3 4 3 3 4 5 5 5 6 7 8 8 9 9 8 8 8 8 7 7 8 8 7 7 8 8 8 8 8 9 10 11 11 11 11 11 12 13 14 14 14 14 14 15 15 16 17 18 18 19 19 19 20 20 20 20 20 20 20
0 1 1 1 3 2 2 2 4 5 3 2 4 3 3 3 4 5 6 4 3 5 6 7 7 6 5 4 4 4 4 3 3 3 3 4 6 7 8 8 9 8 7 6 6 6 7 7 7 6 6 8 8 7 7 8 8 9 10 11 11 11 13 14 14 14 15 15 15 15 15 15 16 17 18 18 19 18 19 19 19 19 19 19 19 20
1 1 1 1 3 1 1 3 4 2 2 4 3 3 3 2 3 5 8 8 6 7 8 9 9 7 5 4 3 4 4 4 4 4 4 4 4 6 7 8 7 7 6 5 5 6 6 6 6 6 7 7 6 6 7 8 8 9 10 12 12 12 13 14 14 14 15 16 16 16 15 16 17 17 17 17 18 18 18 18 18 18 18 18 18 19
2 1 1 1 2 2 2 3 2 3 3 3 2 2 1 1 2 4 7 7 5 6 7 8 8 6 4 3 2 2 2 3 4 5 4 3 2 4 6 6 6 5 5 5 5 5 5 6 6 6 6 6 6 7 8 8 8 9 11 12 13 13 14 15 14 15 16 16 16 16 16 16 16 16 16 16 17 17 17 18 18 19 18 18 18 18
4 3 1 1 1 2 4 3 3 4 1 4 2 2 2 2 1 2 6 5 1 2 5 7 7 4 2 1 1 2 1 3 5 3 2 2 1 3 4 5 5 5 4 4 4 4 5 5 6 6 5 5 6 6 7 7 7 9 12 13 12 13 14 15 14 15 16 16 16 16 15 15 16 15 15 15 16 17 17 18 19 18 18 18 19 18
4 3 2 2 1 2 4 4 3 4 1 3 4 4 2 2 2 2 6 4 1 1 3 5 4 2 1 0 1 0 2 4 5 1 7 5 3 3 4 4 4 5 5 5 5 5 6 6 6 6 5 5 6 5 6 6 8 10 12 13 13 14 15 14 14 15 15 15 16 16 15 15 15 15 15 16 17 17 18 18 18 18 18 18 18 18
4 3 3 4 3 3 4 5 3 3 2 3 5 5 3 1 1 2 5 2 4 3 2 3 3 2 1 1 1 1 3 5 3 4 7 6 4 4 5 5 5 5 6 6 7 8 7 6 6 6 6 6 6 5 5 7 8 10 12 13 14 15 15 14 14 15 15 16 16 16 16 16 16 16 16 17 17 17 18 18 18 18 18 18 18 18
4 3 4 5 4 2 3 5 3 2 1 4 5 5 5 3 2 5 4 2 5 3 1 2 3 3 2 2 2 3 4 5 4 5 6 4 3 3 4 6 5 5 6 6 6 7 6 6 6 6 6 6 6 5 6 7 9 11 12 13 14 15 14 13 13 15 16 16 16 16 16 15 15 15 16 16 17 17 17 17 17 18 19 19 18 18
4 3 3 5 4 2 2 4 4 2 2 5 5 6 6 4 4 4 3 5 4 2 2 1 4 3 2 3 3 4 4 4 3 3 2 1 2 3 3 4 4 4 5 6 4 4 6 6 6 7 7 6 6 6 7 8 9 11 13 14 14 15 14 13 13 14 15 16 16 16 16 15 15 15 15 16 16 16 17 17 17 17 18 18 18 18
3 3 3 3 3 2 2 4 5 1 3 5 5 6 5 3 2 2 4 4 2 1 2 1 3 2 3 4 4 4 4 3 1 2 2 2 3 4 3 2 3 3 4 4 4 5 6 7 6 7 7 6 6 7 8 8 10 12 13 14 15 15 14 13 14 15 15 16 16 16 16 16 15 15 15 15 15 16 16 16 16 17 17 17 18 19
0 2 3 3 2 2 3 4 5 2 3 7 8 6 5 4 3 5 2 2 2 1 0 1 1 1 3 4 4 5 5 3 3 4 4 4 3 3 3 3 3 4 4 5 5 6 7 8 7 7 7 7 7 8 8 8 10 12 13 15 15 15 14 15 15 15 15 16 16 17 17 16 16 16 15 15 15 16 16 16 16 17 17 17 18 19
2 3 4 1 2 2 3 2 2 4 5 10 8 2 4 5 2 4 2 0 2 1 1 1 1 2 3 4 4 5 5 5 5 5 5 5 4 3 3 3 4 5 5 6 6 5 7 8 8 8 8 8 8 8 8 9 11 12 13 15 15 14 15 16 15 14 15 16 16 17 17 17 18 17 16 16 15 15 15 16 16 16 16 16 17 17
1 1 4 2 1 3 5 5 3 4 4 9 8 5 2 2 0 1 3 3 1 1 1 2 0 2 3 5 4 5 5 5 5 5 5 5 4 4 4 4 4 5 6 6 6 5 7 9 9 10 11 11 9 9 9 10 11 12 13 14 14 14 15 15 15 15 15 16 17 17 17 18 19 18 17 15 15 14 15 15 15 16 16 16 16 16
2 1 1 2 1 2 6 6 3 2 2 6 8 8 5 3 2 2 3 5 3 1 1 2 2 1 3 4 4 5 5 4 5 5 5 5 5 5 4 5 5 6 6 7 7 6 8 9 10 11 13 13 11 10 11 12 12 12 12 13 13 13 13 14 15 16 16 16 17 17 18 18 19 18 17 15 14 14 14 14 15 15 15 15 15 15
4 3 3 4 2 2 4 3 2 1 2 3 5 7 7 8 7 5 5 6 4 3 3 3 3 2 3 4 5 6 5 5 5 6 5 5 5 5 5 6 6 6 7 8 8 7 8 9 11 13 14 14 12 11 12 13 12 12 12 12 13 13 12 12 14 16 16 16 17 17 18 18 17 17 17 16 15 15 14 14 14 15 15 15 15 15
3 3 4 6 4 5 7 7 4 3 4 5 5 5 5 6 7 6 6 6 6 5 5 4 4 4 4 5 6 6 7 6 6 6 6 5 5 6 6 7 7 7 8 9 8 8 9 10 12 14 14 14 14 13 13 14 14 12 12 12 12 12 12 12 13 15 16 16 16 16 16 17 17 17 17 17 17 16 14 14 14 14 15 14 14 15
3 2 4 4 5 8 9 7 4 4 4 3 3 2 3 4 4 4 5 6 7 7 7 6 6 6 6 6 5 6 7 8 7 7 7 6 6 6 7 7 8 8 9 9 8 9 10 11 13 15 15 15 15 15 14 15 15 14 13 13 13 12 12 13 13 14 16 16 15 15 15 16 17 18 18 18 17 16 15 14 13 13 13 13 14 15
3 6 5 3 6 7 4 3 4 4 5 2 2 3 2 2 4 5 4 5 6 6 6 6 7 7 7 7 6 6 7 8 7 7 7 7 7 8 8 8 8 9 10 10 9 9 11 12 14 15 16 16 17 17 16 15 16 16 15 15 15 13 13 13 13 14 15 17 16 15 15 17 18 17 17 18 18 17 16 15 14 12 10 11 14 16
5 7 6 5 7 7 5 4 3 2 4 4 4 5 3 2 4 5 4 4 4 3 3 5 6 6 7 7 7 7 8 8 8 8 8 8 8 8 9 9 9 10 10 10 10 10 11 12 14 14 16 17 18 18 17 16 17 18 17 16 17 15 14 14 14 14 15 18 17 15 15 16 18 17 17 17 17 17 17 17 16 13 10 9 13 16
Wind_Direction
256 51 52 35 28 27 23 14 10 21 46 149 146 110 104 106 110 109 105 106 101 93 93 96 95 88 82 81 77 94 114 115 115 115 111 108 104 100 96 92 86 80 76 73 69 65 64 60 53 46 36 33 34 29 21 14 17 18 14 19 21 13 6 357 348 340 327 329 328 308 304 303 293 287 274 264 279 300 304 315 335 329 313 299 273 258
269 44 50 33 23 20 19 18 18 55 102 139 129 116 114 114 112 108 109 121 117 105 103 101 94 88 85 88 85 94 106 104 106 112 109 105 101 97 93 89 85 81 76 73 70 67 66 63 58 52 44 39 34 28 21 12 11 12 11 11 8 4 357 349 338 326 316 312 307 299 295 292 290 289 281 278 292 304 300 293 280 267 253 244 251 244
89 51 38 24 12 14 61 54 53 76 98 134 120 108 108 126 120 96 101 115 115 111 111 104 93 88 88 87 86 88 91 92 92 95 99 102 96 86 81 82 85 86 80 72 68 65 67 67 63 57 51 48 42 34 28 21 12 6 4 360 355 352 341 332 326 319 313 306 298 293 291 289 285 279 280 293 296 291 286 276 258 251 243 243 259 257
76 48 28 19 301 252 108 93 118 109 95 70 103 118 129 151 151 122 124 125 112 115 119 108 96 87 90 88 83 87 96 98 93 88 89 91 86 80 79 78 81 84 82 78 72 66 66 66 63 57 52 50 46 41 39 35 27 14 2 350 342 337 332 325 319 313 308 302 295 287 284 283 281 272 261 265 271 272 275 275 267 263 262 261 272 272
69 48 20 34 331 317 89 109 247 117 91 47 42 102 148 168 147 129 133 122 107 119 125 115 98 77 75 85 88 93 101 105 106 101 92 86 85 85 85 82 78 77 74 71 67 59 56 57 56 53 50 48 44 41 41 40 35 26 15 359 343 335 338 339 334 327 314 305 295 281 273 265 263 259 251 248 247 254 266 272 272 273 276 276 278 280
68 56 335 25 62 29 61 82 358 333 101 69 50 91 144 140 109 114 127 124 124 137 145 148 105 83 73 88 100 109 106 105 106 101 94 89 88 86 81 77 73 70 65 61 58 54 53 53 53 51 47 43 40 37 36 36 34 29 23 13 358 347 345 345 344 338 326 316 305 287 281 270 260 251 245 248 251 260 268 270 272 274 277 276 275 275
65 65 11 19 40 50 69 82 30 322 105 97 87 114 133 105 86 81 145 144 160 130 150 235 157 117 109 95 102 110 104 102 100 95 92 89 84 77 71 66 61 62 60 58 55 52 52 51 51 49 44 40 36 32 31 33 31 27 23 19 14 7 0 355 350 344 332 325 321 308 298 291 286 277 261 252 258 266 268 265 270 276 277 274 270 269
39 45 36 22 25 40 41 52 18 323 30 108 133 131 126 117 114 236 220 158 142 108 104 137 126 119 120 106 112 117 107 102 97 90 88 84 79 72 66 63 59 56 55 54 53 50 50 50 48 46 42 39 34 30 29 30 29 26 23 21 20 20 17 12 7 5 353 341 339 332 322 312 301 295 292 292 286 280 274 269 271 274 274 270 265 267
31 35 27 7 21 44 25 18 2 327 62 116 144 134 132 140 154 212 206 136 141 129 98 96 114 119 118 130 146 138 117 107 100 93 87 80 75 69 63 61 61 61 59 58 55 52 51 49 48 46 42 39 34 31 30 31 30 28 26 26 25 25 24 21 19 17 11 0 352 344 337 333 326 314 309 313 312 302 295 292 288 278 272 268 260 263
56 43 26 10 19 31 23 19 350 318 84 125 144 137 143 151 160 201 181 125 148 129 94 90 127 126 120 143 166 162 142 120 109 99 88 80 73 66 60 59 59 62 63 63 61 57 53 50 48 45 41 37 32 30 29 30 31 30 30 29 28 28 26 25 23 21 19 14 4 354 345 336 331 328 324 327 330 319 308 304 304 304 295 281 269 265
99 84 46 34 17 3 25 35 25 50 108 132 145 141 149 147 159 197 151 143 156 107 92 89 109 144 138 156 166 143 126 118 121 114 100 91 77 65 61 58 56 58 59 61 64 60 55 50 45 40 38 35 30 27 28 27 29 31 31 30 30 29 27 25 24 23 23 22 16 7 359 345 334 330 327 326 328 327 319 311 310 312 307 300 296 286
114 116 98 59 18 0 55 66 61 96 127 142 152 151 157 148 160 178 160 188 176 112 109 104 139 260 157 154 157 127 117 120 124 118 110 94 75 67 62 59 57 59 61 61 62 61 57 49 41 36 34 33 29 25 25 23 24 29 29 28 29 26 24 23 23 23 22 20 19 13 8 1 350 344 339 332 329 328 325 322 318 314 306 300 298 299
95 77 86 106 55 14 310 152 104 132 160 168 172 170 168 147 156 160 149 171 121 111 129 129 222 268 85 112 136 133 133 130 111 101 100 86 74 70 68 69 67 64 66 66 63 61 56 44 35 32 32 33 30 24 23 21 18 22 25 25 27 25 21 20 20 20 19 17 14 11 7 3 357 353 348 341 337 335 329 324 320 315 311 303 296 297
114 90 57 52 71 8 336 335 99 139 165 168 167 182 179 114 144 153 133 132 115 122 140 156 256 196 117 118 135 139 136 125 122 104 87 78 75 71 67 77 83 77 72 68 63 56 48 38 30 31 33 33 31 23 19 17 15 18 22 22 25 27 24 21 20 19 17 16 13 10 6 0 357 352 347 341 337 334 329 323 317 312 310 307 301 300
121 104 42 19 19 4 4 11 2 11 136 91 2 291 329 48 88 150 135 130 120 127 145 165 245 173 137 131 134 142 141 136 139 120 97 86 87 82 78 85 85 83 77 68 66 58 47 37 31 36 38 33 31 24 15 13 16 18 21 23 25 28 27 24 23 21 19 17 15 14 11 6 1 354 347 343 337 331 325 320 318 314 310 307 302 299
67 86 61 47 26 11 30 34 353 312 65 84 288 279 344 18 4 73 47 42 89 141 146 151 208 98 99 132 149 166 169 162 153 135 128 111 100 93 86 84 77 77 74 67 66 56 45 39 36 41 41 32 27 23 19 15 18 21 20 22 26 26 26 25 24 24 22 21 19 18 16 11 7 0 354 347 341 335 326 318 314 312 312 311 307 303
131 100 95 107 84 44 30 38 27 326 318 150 197 295 55 17 340 145 89 47 249 190 134 151 194 148 163 183 180 190 184 176 173 165 158 131 119 116 94 84 76 77 69 56 53 46 37 33 34 36 36 33 24 21 25 20 19 23 18 17 22 22 20 21 21 20 19 18 18 17 14 10 6 2 357 351 345 340 333 325 317 311 311 311 310 309
316 115 110 98 79 73 31 301 70 40 339 289 142 92 85 60 306 249 111 132 216 170 121 190 205 177 201 186 172 190 193 187 187 183 170 157 156 146 114 93 77 74 69 58 49 43 37 30 28 26 26 33 28 24 28 25 22 23 19 16 16 15 15 15 14 13 13 11 11 9 7 5 3 0 357 353 348 344 340 335 329 322 318 315 313 310
320 138 125 104 30 79 130 233 144 73 22 15 81 102 234 204 149 175 135 168 197 122 132 181 183 210 227 181 170 190 194 190 189 189 182 174 174 166 138 120 103 89 86 83 40 40 37 29 29 26 22 25 28 28 27 25 23 20 19 17 15 12 11 12 9 7 6 4 3 1 359 358 357 355 354 352 350 346 344 342 337 332 326 323 319 314
311 269 119 90 311 151 70 343 111 86 71 80 118 155 279 333 8 115 99 293 261 131 150 160 166 217 214 160 171 185 189 189 189 191 191 183 181 187 188 141 128 136 158 230 356 52 40 27 31 28 18 13 18 24 22 19 16 15 16 15 13 12 9 8 4 359 358 356 353 351 349 348 347 346 346 346 346 345 343 343 341 337 332 328 324 319
299 295 96 86 122 181 48 35 24 23 54 151 183 159 127 44 327 103 105 318 311 208 159 161 164 134 76 119 168 173 181 186 186 190 192 190 190 190 195 187 134 160 171 216 273 97 75 43 35 22 16 9 8 16 16 12 9 9 12 9 5 5 3 360 355 351 348 343 340 338 337 337 335 336 338 337 337 337 337 339 338 336 333 329 326 322
310 329 98 88 79 79 64 53 24 9 13 3 14 65 52 129 217 218 158 140 315 331 359 217 151 98 59 34 173 164 175 183 184 189 194 195 196 194 192 189 215 223 193 196 213 194 157 96 33 1 8 7 9 12 6 5 4 3 2 359 357 358 356 351 346 343 340 334 331 329 328 328 327 329 330 327 327 328 330 332 333 333 332 327 326 323
312 313 95 87 72 78 85 84 52 345 358 21 49 41 337 355 301 301 58 134 162 5 325 286 146 97 78 85 207 172 172 181 183 185 196 201 195 201 204 186 200 227 222 196 193 194 187 169 188 280 341 353 3 5 352 350 353 353 352 350 349 349 346 341 337 336 333 328 324 322 321 321 322 324 325 322 320 320 322 325 326 329 330 328 326 323
262 267 107 110 112 120 123 124 139 199 228 104 67 43 10 30 350 346 19 96 145 76 281 236 147 107 102 140 218 177 166 181 182 186 203 205 190 202 212 194 192 210 215 199 189 190 193 196 210 228 330 346 347 355 335 330 337 342 344 344 343 341 337 333 330 330 328 324 320 318 317 318 318 319 321 321 318 315 316 319 321 324 326 327 326 325
258 301 279 181 146 146 159 155 147 155 172 78 67 53 43 35 340 338 15 223 121 45 317 299 91 100 119 160 186 177 182 192 185 192 209 209 197 205 214 203 191 198 204 197 192 193 199 211 229 266 350 346 346 350 330 324 333 336 337 339 336 334 332 330 327 325 324 321 319 318 317 317 317 316 317 319 319 316 315 315 317 320 322 324 326 326
312 6 331 304 358 104 126 108 92 92 96 86 75 65 56 30 346 305 235 209 100 91 296 341 46 94 132 169 186 186 199 206 198 200 209 212 211 212 217 207 190 198 204 198 197 200 207 221 240 272 331 338 346 349 335 328 329 330 334 335 329 327 329 329 327 323 320 319 318 318 319 319 318 316 315 316 318 317 316 315 317 318 318 321 324 325
134 67 13 360 24 38 58 72 46 350 32 99 84 69 57 30 3 339 295 61 50 215 157 59 33 57 130 161 188 195 205 212 211 209 209 212 212 212 219 214 204 209 208 202 206 209 215 226 238 249 274 324 336 334 328 325 325 329 332 330 328 328 327 326 325 322 320 318 316 316 319 321 320 318 315 315 317 317 316 317 318 317 317 319 321 322
155 89 27 18 45 43 45 68 38 330 8 49 47 54 48 29 13 11 45 51 347 284 91 72 28 318 70 127 183 200 210 216 217 217 218 217 212 210 216 216 218 222 216 214 220 222 227 233 238 248 262 296 314 311 311 314 320 324 324 325 327 329 327 324 323 322 321 319 316 315 318 320 319 318 317 316 316 316 317 317 316 316 317 317 317 318
339 88 41 16 73 65 33 50 354 322 356 352 325 347 6 2 2 20 47 42 333 328 22 38 352 315 317 317 257 213 219 230 229 224 223 223 219 216 218 222 227 230 228 225 225 228 235 240 241 247 259 277 288 292 298 308 317 320 320 324 328 330 328 325 322 322 322 319 317 316 317 316 317 317 317 316 317 318 318 316 315 316 316 315 315 315
328 86 65 320 113 98 49 39 302 295 298 285 283 306 319 322 332 339 347 340 312 312 329 339 320 305 301 309 313 327 287 258 253 238 226 226 228 228 231 238 240 241 241 238 235 233 233 238 242 246 256 267 271 282 295 306 314 317 320 325 329 330 330 326 323 322 321 318 317 318 317 316 317 318 317 317 318 318 317 316 316 316 314 314 315 315
297 91 74 262 177 117 85 325 260 280 293 288 279 268 272 285 287 274 277 276 268 275 288 300 297 293 52 51 336 322 274 249 243 232 229 231 234 236 241 249 253 255 255 253 251 247 238 237 240 243 253 261 263 275 289 297 306 314 321 325 328 328 327 326 324 322 321 320 319 318 318 319 319 318 319 319 318 318 317 317 316 315 314 315 316 316
284 122 186 249 246 107 113 265 268 276 277 271 265 257 248 256 269 280 288 268 269 289 296 278 287 340 67 50 316 257 227 243 238 230 231 233 236 240 246 255 260 262 262 261 261 258 247 242 245 248 256 264 267 276 286 294 304 315 322 324 325 324 322 323 323 323 324 323 321 318 320 321 319 319 321 320 319 319 318 318 317 317 317 317 317 318
354 151 174 251 291 92 106 289 281 267 262 250 252 295 276 263 278 286 278 253 253 275 287 287 318 12 18 336 299 268 242 245 246 243 244 245 247 248 253 261 267 266 263 264 265 261 253 252 257 256 254 261 271 282 290 295 303 313 319 319 318 319 319 320 322 324 324 326 324 321 321 321 320 320 321 321 320 320 318 318 319 320 319 318 318 318
267 299 74 311 307 91 106 283 260 253 270 72 72 33 356 323 299 289 288 288 260 249 272 293 305 317 319 303 293 293 286 279 279 276 279 275 266 263 263 267 273 273 267 262 255 252 254 257 261 256 251 262 272 276 280 289 298 308 313 313 314 318 320 321 322 323 324 326 325 322 321 321 321 321 322 321 321 320 318 319 321 321 319 318 319 319
203 287 86 312 309 340 139 245 250 271 37 78 87 63 30 342 309 296 293 290 274 259 266 278 284 294 308 309 303 307 311 314 305 281 271 270 266 270 273 272 272 270 264 251 237 239 248 252 254 254 256 264 264 258 271 291 303 308 314 317 318 320 322 323 322 323 324 326 325 322 322 322 321 322 322 321 322 321 320 322 322 320 319 318 318 319
236 243 219 265 303 303 262 253 295 346 50 110 118 100 110 246 248 274 285 278 265 265 267 272 284 301 314 313 323 342 343 321 285 257 243 248 266 278 282 282 281 274 262 251 243 242 250 255 259 262 263 258 254 264 287 304 311 312 315 319 320 321 324 324 324 325 327 327 325 324 324 323 322 323 323 323 324 324 324 324 321 320 320 319 318 320
248 242 244 256 265 296 295 288 296 299 218 155 146 142 172 250 254 281 294 295 277 276 278 281 289 296 295 305 31 31 355 280 265 236 139 91 339 304 293 293 296 287 265 251 246 242 248 259 265 265 256 245 252 275 296 305 311 312 314 316 319 323 326 326 326 328 329 328 327 328 327 325 325 326 326 326 325 325 325 322 319 320 321 320 320 321
240 256 269 268 225 262 295 296 288 289 262 124 108 104 105 343 14 309 286 278 131 67 305 287 281 269 250 205 115 113 271 271 276 78 85 67 23 340 308 289 275 271 266 256 254 255 257 260 263 257 243 239 255 276 290 301 308 309 311 316 322 325 327 328 330 332 331 329 329 329 327 326 327 328 328 327 326 325 324 320 318 320 320 320 321 320
216 242 250 260 243 232 276 292 296 308 351 83 100 106 117 128 128 254 272 267 91 63 334 267 252 251 246 215 175 228 273 282 305 57 71 52 20 356 328 309 286 274 274 275 278 282 281 270 256 248 241 246 264 277 287 301 307 306 310 318 324 327 328 330 333 332 330 329 328 327 327 327 328 328 327 326 325 324 323 321 320 321 320 320 320 319
197 212 221 246 251 225 260 286 291 294 13 97 110 119 119 122 193 251 275 39 73 62 22 236 246 253 247 220 205 244 280 302 339 35 60 48 8 356 341 329 320 303 294 293 292 289 285 269 251 251 253 257 270 283 292 301 304 307 313 318 323 327 329 330 332 331 329 328 327 327 328 328 327 327 325 324 325 324 322 322 322 322 322 322 321 322
198 203 226 259 266 225 232 276 285 285 97 106 119 126 127 146 219 260 340 42 60 72 96 233 260 256 230 224 224 260 307 348 9 21 49 25 327 345 355 336 325 312 307 310 300 276 275 271 262 265 273 275 279 286 294 300 304 308 314 318 322 326 328 330 331 330 329 329 328 329 331 330 328 327 323 321 323 323 322 322 323 324 323 322 324 326
204 198 206 239 269 263 259 284 286 292 97 109 115 119 145 202 268 354 40 55 49 57 105 206 262 257 231 238 244 271 315 5 24 280 288 292 316 339 342 321 301 289 290 288 267 253 266 275 268 264 271 275 277 285 293 298 301 308 313 318 322 325 327 327 328 328 329 329 329 330 331 330 328 325 322 322 322 322 321 322 323 324 323 323 326 327
209 254 239 201 214 260 259 268 285 319 111 143 138 131 187 237 351 24 58 124 109 64 134 205 232 229 236 248 255 266 284 296 275 274 284 285 292 304 301 291 285 286 283 274 263 249 251 266 270 264 267 271 272 282 291 293 296 305 312 318 323 324 323 322 323 326 329 330 330 330 330 330 330 326 322 322 321 319 318 320 322 323 323 324 327 329
188 258 280 248 146 254 272 268 339 36 119 164 173 179 213 219 359 8 327 161 130 171 252 276 209 195 231 254 264 269 276 280 278 277 278 279 279 275 275 274 273 280 284 284 283 265 247 259 271 270 267 267 268 278 286 284 289 299 309 317 321 320 318 318 318 320 324 327 328 330 331 331 331 330 327 325 322 317 317 319 321 321 323 326 328 330
181 311 324 325 197 252 293 311 358 44 127 183 218 269 263 212 284 324 290 300 296 191 264 312 289 181 214 243 262 270 270 273 277 274 275 281 282 275 278 281 276 279 283 287 290 273 251 258 267 267 267 267 267 274 279 279 284 291 302 314 320 317 315 317 316 314 317 322 325 327 329 329 331 332 331 326 322 319 317 319 320 320 322 325 326 330
143 112 310 297 276 271 279 277 271 275 207 202 230 252 258 254 252 225 251 276 286 263 254 284 305 234 206 228 251 264 268 272 275 273 273 277 279 276 274 273 275 275 277 283 283 266 252 256 260 260 264 267 266 268 273 276 279 283 296 311 318 316 313 312 311 309 309 313 318 321 323 327 330 332 331 328 326 324 321 320 320 319 321 323 326 330
160 163 225 253 269 292 273 257 225 241 242 228 244 251 247 246 244 238 246 260 270 268 255 258 275 266 219 225 245 263 274 276 275 279 280 273 273 275 268 267 273 275 274 280 279 261 248 253 257 258 261 264 263 265 270 275 278 282 293 306 313 314 310 305 304 304 303 306 312 314 317 324 328 328 327 329 329 327 324 324 324 321 320 322 327 331
135 164 245 249 242 267 283 287 296 292 271 258 259 260 258 258 255 245 246 252 252 251 244 239 243 243 231 234 246 262 276 279 279 286 288 280 275 274 270 271 274 274 276 279 272 252 246 255 260 261 262 264 265 267 270 277 282 284 289 299 306 307 305 300 297 297 297 302 306 306 310 319 324 323 325 328 329 327 325 327 327 324 321 322 326 330
108 200 256 269 266 274 283 289 307 311 284 247 235 261 287 304 300 275 256 248 242 239 237 230 229 234 244 254 257 262 272 278 281 283 284 282 275 269 269 274 275 275 280 280 264 246 249 259 263 262 263 265 268 270 270 276 282 283 285 294 300 300 297 296 294 293 297 303 306 304 306 313 318 321 323 325 327 326 324 323 321 320 321 323 324 325
203 256 266 265 265 275 299 356 10 330 297 295 18 4 350 334 311 291 266 247 240 239 238 232 227 229 238 248 254 258 268 278 282 281 280 279 276 273 274 277 276 277 281 281 266 249 249 257 262 263 263 265 269 272 272 274 281 284 284 291 298 295 289 290 292 294 303 310 311 307 305 306 311 316 319 321 324 327 325 321 316 310 310 317 322 322
245 279 284 270 275 296 327 355 13 319 287 303 339 342 349 349 314 299 287 266 250 240 240 244 244 241 241 242 242 247 262 278 284 282 277 275 275 276 276 276 277 279 281 280 272 259 255 260 261 258 258 263 269 272 273 274 279 282 282 286 294 292 287 290 295 297 305 312 312 309 303 300 303 309 312 315 320 324 325 326 323 313 302 305 318 322
Height
775 786 794 797 800 799 798 796 793 791 791 792 793 798 808 817 823 820 816 813 808 819 834 836 841 848 846 843 837 833 834 833 835 835 833 833 833 835 837 839 841 842 844 845 846 846 846 846 846 847 847 847 847 847 846 845 844 844 843 842 842 842 842 841 841 840 839 839 838 838 837 837 837 837 837 837 837 837 836 836 836 836 836 836 836 836
779 794 803 801 801 800 799 798 794 793 793 793 795 806 819 823 824 821 816 814 809 820 837 837 842 851 849 847 842 835 835 836 837 837 836 836 836 838 839 841 842 844 845 846 847 847 847 846 847 848 848 848 848 847 847 846 845 844 843 843 842 842 841 841 841 840 839 839 838 837 837 837 836 836 836 836 836 836 836 836 836 836 836 836 836 836
791 802 804 800 800 800 799 797 796 797 796 795 798 809 825 829 828 828 821 815 813 822 837 838 843 852 849 847 845 841 840 840 839 839 838 838 839 840 842 843 844 846 848 848 849 849 849 848 847 848 849 849 849 848 848 847 846 845 844 843 842 841 841 841 841 840 839 839 838 838 837 836 836 836 835 835 835 835 835 835 835 835 835 835 835 835
803 807 803 800 800 799 801 799 797 799 798 798 804 816 829 829 830 838 832 821 817 824 834 837 842 849 848 847 847 844 844 843 842 842 840 840 841 843 844 845 846 847 848 850 850 850 850 848 847 848 849 850 850 849 848 848 847 846 845 844 842 842 841 841 840 839 839 838 837 837 837 836 836 835 834 834 834 834 835 835 835 835 834 834 834 834
808 807 801 800 800 798 801 802 798 800 805 805 806 818 828 824 826 835 834 828 826 826 828 831 843 854 851 851 852 846 843 844 843 842 841 841 841 843 845 846 846 846 847 848 849 849 848 846 847 848 850 851 850 850 849 848 847 846 845 844 843 842 841 840 840 839 838 837 837 836 836 835 834 834 833 833 833 833 833 834 834 834 834 834 834 834
807 805 801 800 800 799 801 805 804 804 810 815 816 820 824 824 831 837 834 838 844 839 827 824 847 868 860 854 855 848 845 846 843 841 842 842 841 842 844 844 844 845 845 846 847 848 847 846 848 850 851 851 851 850 849 848 847 847 846 845 844 843 841 840 840 839 838 837 837 836 834 834 832 831 831 830 831 831 831 832 832 832 833 833 833 833
806 802 799 800 800 799 801 806 808 805 811 825 826 821 823 828 840 846 839 842 849 841 825 817 839 867 867 858 853 848 847 847 844 844 843 842 842 842 843 844 844 844 844 845 847 847 847 848 850 851 852 852 851 850 849 848 848 847 846 845 844 843 842 841 840 839 838 836 836 835 834 834 833 831 829 828 828 829 829 829 830 830 830 831 831 831
807 803 803 802 800 801 806 810 811 805 813 829 824 819 828 834 843 847 839 838 837 828 824 817 824 852 867 862 853 846 848 850 847 847 845 843 844 844 845 846 845 845 845 846 848 848 849 851 852 853 853 853 852 851 850 849 848 847 847 846 845 844 843 842 841 840 839 837 836 835 834 834 835 834 831 829 828 828 827 827 827 828 828 828 829 829
809 809 811 805 804 808 813 814 811 807 816 825 819 818 827 830 836 837 829 829 825 825 838 832 823 846 865 861 852 847 849 853 851 849 847 846 846 846 846 846 846 846 847 847 849 850 852 853 854 854 854 854 853 852 851 850 849 848 847 847 846 845 844 843 842 841 839 839 837 836 835 834 834 834 833 831 828 828 827 826 826 825 826 826 826 827
811 813 812 808 811 814 815 814 811 809 815 819 816 818 821 822 827 826 821 822 822 832 849 842 829 846 864 859 851 850 850 852 852 848 848 848 847 847 847 847 847 847 847 848 850 852 853 854 855 855 855 855 854 853 853 852 851 850 848 847 846 845 844 843 842 841 840 840 839 837 836 835 833 832 831 830 829 828 828 827 826 825 825 824 824 824
812 811 809 812 816 815 813 813 811 809 811 815 818 821 823 823 823 820 819 820 829 846 851 841 831 839 858 858 846 847 848 846 848 848 848 847 847 848 848 848 848 848 848 849 851 853 855 856 856 856 856 856 856 855 854 853 852 851 849 848 847 845 845 844 843 842 841 840 839 838 837 836 834 832 831 830 829 829 829 828 827 826 826 825 824 823
811 812 813 816 815 813 812 813 813 811 809 814 817 821 827 830 827 827 826 823 838 857 851 840 835 834 850 855 842 843 845 843 845 847 849 848 848 849 849 849 850 849 850 851 852 854 856 857 857 857 858 857 857 856 854 854 853 851 851 849 848 847 845 845 844 843 842 841 840 839 838 836 835 833 831 830 829 829 829 828 827 827 826 826 825 824
814 814 814 815 813 812 813 812 814 814 812 814 817 821 828 834 838 840 838 836 845 856 848 840 840 840 847 847 839 842 844 843 845 845 847 848 849 851 850 850 851 850 851 852 853 855 856 858 858 858 858 857 857 856 855 855 853 852 851 850 849 848 847 846 845 844 843 842 841 839 838 837 835 834 833 831 830 829 829 828 828 827 826 826 825 824
822 819 814 815 815 812 812 811 815 817 812 812 816 819 823 832 846 851 845 846 852 853 845 839 841 848 852 847 841 843 843 843 846 845 847 849 850 852 850 850 852 851 852 853 854 856 857 858 859 859 859 858 858 857 856 855 854 853 852 851 850 849 848 847 845 844 843 842 841 840 839 837 836 835 833 832 831 830 829 828 827 827 826 825 824 823
827 830 823 823 821 816 815 814 817 815 808 809 809 810 816 823 837 847 841 842 850 850 846 846 848 852 855 850 842 842 842 843 845 846 848 849 850 851 850 850 851 852 853 854 855 858 859 859 860 859 859 859 858 858 857 856 855 854 852 851 851 849 849 848 846 845 844 843 842 840 839 838 837 836 834 833 832 830 829 828 827 826 825 824 823 822
828 834 827 824 822 819 820 818 817 817 815 815 810 812 820 819 824 840 843 839 843 846 847 851 853 849 849 848 842 842 845 844 846 847 847 850 850 850 851 851 852 853 853 855 856 858 859 859 860 860 860 859 859 858 857 856 855 855 853 852 851 850 850 848 847 846 845 844 842 841 840 839 837 836 834 833 832 830 829 827 826 825 824 823 822 821
829 835 826 822 823 821 822 820 817 821 823 818 814 821 823 816 820 836 846 846 842 843 848 852 852 850 851 851 845 844 848 847 847 848 847 849 851 851 853 852 852 854 855 856 857 857 858 859 859 860 860 860 859 859 858 857 856 855 854 853 852 851 850 849 848 847 846 844 843 842 840 839 838 836 835 833 832 830 829 827 826 825 823 822 821 820
825 833 828 823 827 823 820 820 817 816 819 816 817 823 821 820 822 825 841 853 845 844 852 850 849 853 854 854 849 848 851 851 848 848 848 850 851 852 853 853 853 854 855 857 857 857 859 859 860 860 860 860 860 859 858 857 856 855 854 853 852 851 850 849 848 847 846 844 843 842 841 839 838 836 835 834 832 830 829 827 826 824 823 822 820 819
822 832 831 823 826 823 816 819 821 816 815 815 817 820 822 830 832 827 840 850 842 848 855 848 848 851 847 847 849 850 852 852 850 848 848 849 849 850 851 852 854 855 857 857 857 857 859 859 861 860 860 860 859 859 858 857 857 856 855 854 853 852 851 850 849 847 846 845 843 842 841 839 838 836 835 834 832 830 828 827 825 824 823 821 819 818
820 830 834 824 820 821 818 821 829 825 819 817 819 820 822 827 829 828 834 836 835 846 853 852 855 848 835 836 843 847 849 849 849 848 847 847 847 849 849 850 853 855 857 858 856 858 859 860 861 860 860 860 859 859 858 857 857 856 855 855 853 852 851 850 849 847 846 845 843 842 841 839 838 836 835 833 832 830 828 827 825 823 822 820 818 817
821 826 835 827 817 823 830 832 835 833 827 823 823 825 827 828 828 829 833 832 831 838 845 852 855 843 830 830 834 840 843 844 846 847 846 846 847 848 850 851 853 855 857 858 857 858 859 860 861 860 860 860 858 859 858 857 857 856 855 855 853 852 851 850 849 847 846 844 843 842 840 838 837 835 834 832 831 829 828 826 824 823 821 819 817 816
826 825 832 832 826 832 839 836 834 834 832 827 826 828 829 829 829 833 839 837 831 835 839 842 847 845 838 833 831 835 840 840 842 844 845 845 846 848 850 852 854 854 855 857 858 858 859 860 860 860 859 859 859 859 858 858 857 856 855 854 853 852 851 850 849 847 845 844 842 841 839 838 836 835 833 832 830 828 827 825 824 822 820 818 816 815
828 824 829 836 834 835 837 834 834 835 833 829 828 830 829 828 830 833 840 839 836 840 839 835 843 848 842 836 833 833 836 838 840 842 844 845 845 847 849 851 853 854 854 856 857 858 859 859 860 860 859 859 858 859 859 858 857 856 855 854 853 852 851 850 848 846 845 843 841 840 838 837 835 834 832 830 829 827 826 824 823 821 819 817 815 813
829 827 831 837 834 832 832 832 833 833 831 831 833 833 832 834 835 832 833 833 836 844 841 837 846 849 842 839 837 834 835 837 839 841 843 844 845 847 848 849 852 853 854 855 856 857 858 859 859 858 858 858 857 858 858 857 856 855 855 854 853 852 850 849 847 846 844 842 841 839 838 836 834 833 831 829 828 826 824 823 821 820 818 816 814 812
832 831 832 836 838 839 838 837 836 834 832 835 838 837 837 837 836 836 833 830 838 848 844 839 846 846 842 841 839 838 838 838 840 842 842 843 846 847 847 848 850 852 853 854 855 856 857 857 857 856 857 857 856 857 857 856 856 855 854 853 852 851 850 848 847 845 843 841 840 838 837 835 834 832 830 829 827 825 823 822 820 818 817 815 813 811
832 834 834 836 839 843 844 843 842 838 835 837 840 839 838 837 836 836 832 830 841 850 845 842 846 844 842 842 841 841 841 841 841 842 842 844 845 846 847 847 849 851 852 853 854 855 856 856 856 856 857 857 856 856 856 855 855 854 853 853 852 851 849 848 847 845 843 841 839 837 836 834 833 831 829 828 826 824 822 820 819 817 816 814 812 810
831 835 838 838 837 839 842 843 843 840 838 840 842 840 839 838 835 832 830 835 843 844 842 845 848 845 843 842 842 841 841 842 842 841 843 843 844 846 846 847 848 849 850 851 852 853 854 854 855 855 856 856 856 856 856 855 854 853 853 852 851 850 849 847 846 844 842 840 838 837 835 833 832 830 829 827 825 823 821 819 818 816 814 813 811 808
831 838 843 842 841 841 841 842 843 841 841 841 841 841 839 838 836 835 838 843 844 842 845 847 848 848 844 838 838 839 838 839 840 839 841 841 842 844 845 846 847 847 848 849 850 851 852 852 854 854 855 856 855 856 855 855 854 853 853 852 851 850 848 847 846 843 841 839 837 836 834 833 832 830 828 826 824 822 820 819 817 815 813 812 809 807
831 840 845 843 844 845 843 843 844 842 841 841 840 840 839 839 839 840 843 844 843 844 847 845 846 849 843 836 836 836 835 836 836 835 836 837 839 841 843 845 846 845 847 848 849 850 850 851 852 853 855 855 855 855 855 854 853 853 853 852 850 849 848 847 845 843 841 838 836 835 833 832 830 829 827 825 823 821 820 818 816 814 812 810 808 806
833 842 846 842 843 846 844 845 845 842 841 840 838 838 839 839 840 841 842 842 843 845 844 843 847 846 838 834 834 833 834 835 834 834 836 836 838 839 841 842 842 843 844 845 846 848 848 850 851 852 854 854 854 854 854 854 853 852 852 851 850 849 848 846 845 842 840 838 836 834 833 831 830 828 826 824 822 821 819 817 815 813 811 809 807 805
835 846 850 842 841 845 845 845 844 842 842 841 837 836 838 840 840 841 841 842 844 844 841 844 847 841 833 833 834 834 836 836 835 836 836 836 837 838 839 840 840 840 841 842 844 845 847 849 850 851 853 853 854 854 853 854 853 852 851 851 850 849 847 845 844 842 840 837 835 833 832 830 829 827 825 823 822 820 818 816 814 812 809 807 805 804
833 844 848 841 841 845 844 844 844 842 841 841 838 835 836 839 839 838 838 840 842 843 843 846 845 836 832 834 834 834 835 835 835 835 835 835 835 836 838 839 838 839 840 840 841 843 845 848 849 850 852 852 852 852 852 853 852 851 851 850 849 848 846 845 843 841 839 837 835 833 831 829 828 826 824 822 821 819 817 815 813 810 808 806 804 802
833 838 840 840 842 844 843 844 843 843 844 844 838 833 833 834 835 836 836 837 838 840 843 843 837 832 833 835 835 834 834 835 835 833 834 834 834 835 837 837 837 837 838 840 841 842 844 846 847 848 851 851 851 851 851 852 852 851 850 849 848 847 845 844 842 840 838 836 834 832 830 829 827 825 823 822 820 818 816 814 811 809 808 806 803 801
835 834 835 838 841 843 842 842 844 848 849 843 835 832 834 835 836 838 836 833 834 835 836 835 831 830 832 834 835 835 833 833 833 833 834 835 835 835 836 836 836 837 837 840 842 842 844 845 847 848 849 850 850 850 851 851 851 850 849 848 847 845 844 842 840 839 837 835 834 832 829 828 827 825 823 821 819 817 815 813 811 809 807 805 802 800
838 836 837 839 840 840 838 841 852 855 845 835 833 834 837 836 837 838 836 831 830 831 832 832 830 829 829 831 832 833 833 833 834 834 834 835 836 836 836 836 836 837 838 841 842 843 844 845 847 848 848 849 849 850 850 849 849 849 848 846 845 844 842 841 839 837 835 834 833 831 829 828 826 824 823 821 819 817 814 812 810 808 806 804 802 799
836 838 838 839 841 842 840 844 853 848 834 831 836 838 839 839 838 841 839 831 826 828 830 830 829 827 828 830 831 832 833 834 833 832 832 834 835 836 836 836 835 836 839 840 841 842 844 845 846 846 847 848 848 848 848 848 848 848 846 845 843 842 841 839 838 836 834 833 832 830 829 828 826 824 822 820 818 816 813 812 810 808 806 803 801 798
833 835 837 841 845 845 843 841 839 835 833 835 837 834 834 835 834 838 841 832 823 824 827 827 828 828 829 830 831 832 834 834 832 828 829 832 835 835 836 836 836 837 838 840 841 842 843 844 845 845 846 846 846 847 847 847 847 846 845 843 842 840 839 838 836 835 834 833 831 830 829 827 825 824 822 820 818 816 814 812 809 807 805 802 800 797
833 834 836 842 846 845 845 843 840 842 842 837 832 830 831 831 829 832 838 833 823 822 825 826 828 828 828 830 832 832 834 834 829 827 829 833 834 835 835 836 836 837 838 839 841 841 842 843 844 844 845 845 845 846 846 846 846 845 843 842 840 839 838 836 835 835 834 832 831 829 828 827 825 824 822 820 818 815 814 811 809 806 804 802 799 796
836 834 833 840 844 843 846 847 845 847 843 833 829 832 832 832 830 832 839 835 824 823 826 826 827 828 827 830 831 832 835 833 826 826 831 834 834 835 835 835 835 836 837 838 839 839 840 841 842 843 843 844 844 844 844 844 844 843 841 840 839 838 836 835 835 834 833 831 830 829 827 826 825 823 821 820 818 816 814 811 808 806 804 801 799 796
838 836 835 840 840 840 845 845 839 838 835 829 830 833 832 832 833 839 846 838 825 823 826 825 827 827 827 829 831 832 833 830 826 828 833 834 834 836 836 835 835 836 836 837 838 839 840 840 841 841 842 842 843 843 843 843 842 841 840 839 838 836 835 835 834 833 832 831 829 828 827 825 824 823 821 819 817 815 813 811 808 806 803 800 798 795
837 837 839 840 837 836 844 845 836 831 829 829 831 832 832 835 839 843 842 832 823 824 826 825 826 827 827 830 831 829 827 826 828 831 833 833 834 834 835 836 836 836 837 837 838 839 840 839 840 840 840 841 841 841 842 841 840 840 839 837 836 836 834 834 834 832 831 830 828 827 826 825 824 822 821 819 817 815 813 810 807 805 802 799 797 795
836 838 840 840 838 835 836 839 837 832 830 831 833 833 835 839 840 834 828 823 822 824 825 825 826 827 827 829 829 828 826 826 830 832 831 832 833 833 834 835 836 836 837 838 838 839 839 838 839 839 839 840 840 840 840 840 839 839 837 836 835 835 834 834 833 831 830 829 828 827 826 825 823 822 820 818 816 814 812 809 807 804 802 799 797 794
832 836 835 833 835 836 837 842 844 839 832 831 834 837 839 837 829 822 820 821 823 823 824 825 826 826 828 828 827 828 827 828 830 830 830 831 832 832 834 834 835 836 836 836 837 838 838 838 838 838 839 839 839 839 839 839 838 837 836 835 834 834 833 832 831 830 829 829 827 826 825 824 822 821 819 817 815 813 811 808 806 803 801 798 796 793
828 832 830 826 829 836 839 839 836 830 827 827 829 829 829 826 820 819 821 821 822 823 823 824 824 825 827 827 827 828 828 828 829 829 829 830 830 831 833 833 834 835 835 835 836 836 837 837 837 837 838 837 837 838 837 837 837 835 835 834 833 833 832 830 830 830 829 828 827 825 824 823 821 819 817 815 814 812 809 807 805 802 800 798 795 793
826 827 829 827 826 829 829 825 821 820 822 825 824 821 820 821 821 822 823 821 821 822 822 822 823 824 826 826 827 827 827 827 827 827 828 828 829 830 831 832 833 834 834 834 835 835 836 836 835 836 836 835 836 836 836 836 835 834 833 833 832 831 830 829 829 828 828 827 826 824 823 821 819 818 816 814 812 810 808 806 803 801 799 797 794 792
822 825 829 827 824 824 822 818 817 820 821 821 821 819 820 821 821 822 823 822 821 821 821 822 822 822 824 826 826 826 826 825 826 826 826 827 828 829 830 831 831 832 833 833 833 834 834 834 834 834 834 833 834 835 834 834 833 832 832 831 830 830 829 828 828 827 826 826 824 823 822 820 818 817 815 813 811 809 807 805 802 800 798 796 794 792
821 826 827 825 826 829 827 819 816 819 820 819 820 818 818 819 820 820 822 821 820 820 821 821 821 822 823 824 824 825 824 824 824 825 825 826 827 827 828 829 830 831 832 832 832 832 833 833 833 832 832 832 832 832 832 831 830 830 830 829 828 828 827 827 826 825 824 824 823 822 820 818 817 816 813 811 810 808 806 804 802 800 798 796 794 793
822 828 827 823 824 827 823 816 813 817 817 816 817 817 816 816 817 817 818 819 819 820 820 820 822 822 822 822 823 824 823 823 823 824 823 824 825 826 827 828 828 829 829 830 830 830 830 830 830 830 830 829 829 829 829 829 828 828 827 827 826 826 825 824 824 823 822 821 821 820 819 817 816 814 811 809 808 807 805 803 801 800 797 795 795 793
825 828 824 822 824 823 818 813 814 817 815 813 814 815 815 816 816 816 817 818 818 819 819 820 821 821 821 822 822 822 823 822 822 822 822 822 823 824 825 826 826 827 827 828 828 828 828 828 828 827 827 827 827 827 826 826 826 825 825 824 824 823 823 822 822 821 820 819 818 818 817 815 813 811 809 808 806 805 804 802 801 800 798 796 795 793
826 824 819 823 828 825 818 816 818 821 820 815 813 815 816 816 817 817 816 816 817 817 817 818 819 820 821 821 821 822 822 821 820 821 822 822 822 823 823 824 825 825 825 826 826 826 826 826 825 825 825 824 824 824 824 823 823 822 821 821 821 821 821 820 819 818 817 815 815 815 814 813 811 809 808 806 804 803 802 801 799 798 796 795 794 792
822 820 817 822 825 821 816 815 818 821 820 816 814 815 816 816 817 816 815 815 815 815 816 817 817 818 818 819 820 821 821 820 820 821 821 821 821 821 822 823 823 823 823 823 824 823 823 823 823 823 822 822 821 821 821 821 820 819 818 818 817 817 818 817 816 815 814 813 812 812 812 811 809 808 807 805 803 802 800 799 797 795 794 793 792 791